Regional Weather Roundup
Issued by NWS

Home | Current Version | Previous Version | Text Only | Print | Product List | Glossary Off
Versions: 1 2 3 4 5 6 7 8 9 10 11 12 13 14 15 16 17 18 19 20 21 22 23 24 25 26 27 28 29 30 31 32 33 34 35 36 37 38 39 40 41 42 43 44 45 46 47 48 49 50

000
ASUS44 KMEG 310910
RWRTN
TENNESSEE HOURLY STATE WEATHER ROUNDUP
NATIONAL WEATHER SERVICE MEMPHIS TN
300 AM CST SAT JAN 31 2015

TNZ002-004-019-021-049-052-054-088>092-311000-
WEST TENNESSEE

CITY           SKY/WX    TMP DP  RH WIND       PRES   REMARKS
MEMPHIS INTL   CLOUDY    38  23  55 E7        30.38F WCI  33
NWS MEMPHIS      N/A     35 N/A N/A MISG        N/A
JACKSON        CLOUDY    30  25  81 CALM      30.39F
DYERSBURG      CLOUDY    32  14  47 E3        30.41F
UNION CITY     CLEAR     25  21  86 CALM      30.38F
PARIS          CLEAR     25  19  80 CALM      30.39S
LEXINGTON      CLEAR     25  19  80 CALM      30.37F
SAVANNAH       CLEAR     28  23  80 CALM      30.38F
$$

TNZ008-025-027-028-033-062-065-066-311000-
NORTH MIDDLE TENNESSEE

CITY           SKY/WX    TMP DP  RH WIND       PRES   REMARKS
NASHVILLE      CLEAR     25  21  85 CALM      30.39F
CLARKSVILLE    MOCLDY    25  22  88 CALM      30.40F
SMYRNA         CLEAR     21  19  92 CALM      30.41F
COOKEVILLE     CLEAR     18  16  93 CALM      30.36F
CROSSVILLE     CLEAR     22  16  78 CALM      30.33F
$$

TNZ061-075-076-078-094-096-097-311000-
SOUTH MIDDLE TENNESSEE

CITY           SKY/WX    TMP DP  RH WIND       PRES   REMARKS
FAYETTEVILLE   CLEAR     27  18  69 MISG      30.35F
TULLAHOMA      CLEAR     23  18  80 CALM      30.36F
WINCHESTER     CLEAR     18  16  93 CALM      30.37F
MCMINNVILLE    CLEAR     21  19  93 CALM      30.36F
COLUMBIA       CLEAR    N/A N/A N/A CALM      30.37S
SHELBYVILLE    CLEAR     19  19 100 CALM      30.38F
$$

TNZ017-018-042-046-047-311000-
NORTHEAST TENNESSEE

CITY           SKY/WX    TMP DP  RH WIND       PRES   REMARKS
TRI CITIES     CLEAR     20  14  77 CALM      30.36F
ELIZABETHTON   SUNNY     18  12  79 CALM      30.34F
$$

TNZ012-013-036-069-073-074-311000-
CENTRAL EAST TENNESSEE

CITY           SKY/WX    TMP DP  RH WIND       PRES   REMARKS
KNOXVILLE      CLEAR     25  17  72 N5        30.37F WCI  19
OAK RIDGE      CLEAR     25  18  74 CALM      30.39F
GATLINBURG     SUNNY     18  16  93 CALM      30.37F
MORRISTOWN     SUNNY     23  16  74 CALM      30.36F
$$

TNZ083-085-099-311000-
SOUTHEAST TENNESSEE

CITY           SKY/WX    TMP DP  RH WIND       PRES   REMARKS
CHATTANOOGA    CLEAR     31  20  63 N3        30.39F
$$

SKY/WX REPORTED AS FAIR MEANS FEW OR NO CLOUDS BELOW
12 THOUSAND FEET.




USA.gov is the U.S. government's official web portal to all federal, state and local government web resources and services.